Flag for Ukraine Weather past 2 weeks in Chernobyl, Ukraine

Now
36 °F

Passing clouds.


Feels Like: 29 °F
Forecast: 26 / 36 °F
Wind: 8 mph from East

Location: Hostomel

Current Time: Oct 23, 2014 at 7:41:07 AM

Latest Report: Oct 23, 2014 at 7:00 AM


Visibility: 6 mi

Pressure: 30.01 "Hg

Humidity: 87%

Dew point: 32 °F

Location of ChernobylLocation

Historic Weather in Chernobyl — Graph

°F

Chernobyl temperature yesterday

Maximum temperature yesterday: 54 °F (at 1:30 PM)
Minimum temperature yesterday: 43 °F (at 7:00 AM)
Average temperature yesterday: 49 °F

Past Weeks' High & Low Weather Summary

 TemperatureHumidityPressure
High73 °F (Oct 13, 3:30 PM)100% (Oct 11, 7:00 AM)30.45 "Hg (Oct 11, 7:00 AM)
Low23 °F (Oct 19, 8:00 AM)25% (Oct 14, 3:00 PM)28.00 "Hg (Oct 17, 8:04 AM)
Average53 °F73%29.98 "Hg
* Reported Oct 8 6:00 AM — Oct 23 6:00 AM, Chernobyl, Weather by CustomWeather, © 2014

Note: Actual official high and low records may vary slightly from our data, if they occured in-between our weather recording intervals... More about our weather records

Advertising

Chernobyl weather history for previous 24 hours

 ConditionsComfort  
Time TempWeatherWind HumidityBarometerVisibility
6:00 AM
Oct 23
36 °FChilly.13 mph87%29.98 "HgN/A
5:00 AM37 °FChilly.13 mph81%29.98 "HgN/A
4:00 AM39 °FChilly.8 mph81%29.98 "HgN/A
3:00 AM39 °FChilly.10 mph81%29.95 "HgN/A
2:00 AM39 °FChilly.10 mph87%29.95 "HgN/A
1:00 AM41 °FQuite cool.10 mph87%29.92 "HgN/A
12:00 AM43 °FQuite cool.8 mph87%29.89 "HgN/A
11:00 PM
Oct 22
45 °FQuite cool.8 mph87%29.89 "HgN/A
10:00 PM45 °FQuite cool.8 mph93%29.86 "HgN/A
9:00 PM48 °FCool.8 mph87%29.86 "HgN/A
8:00 PM48 °FCool.6 mph87%29.83 "HgN/A
7:00 PM48 °FCool.8 mph94%29.83 "Hg5 mi
6:00 PM50 °FCool.6 mph94%29.80 "Hg3 mi
5:00 PM52 °FFog.6 mph94%29.80 "Hg3 mi
4:30 PM52 °FOvercast.3 mph94%29.80 "Hg4 mi
4:00 PM54 °FPartly sunny.6 mph82%29.77 "Hg4 mi
3:30 PM54 °FClear.3 mph82%29.77 "Hg4 mi
3:00 PM54 °FClear.1 mph82%29.77 "Hg4 mi
2:30 PM54 °FFog.1 mph82%29.77 "Hg3 mi
2:00 PM54 °FFog.1 mph82%29.77 "Hg3 mi
1:30 PM54 °FFog.1 mph82%29.77 "Hg3 mi
1:00 PM52 °FFog.1 mph88%29.77 "Hg3 mi
12:30 PM52 °FPartly sunny.3 mph88%29.77 "Hg4 mi
12:00 PM52 °FPartly sunny.3 mph88%29.77 "Hg4 mi
11:30 AM50 °FPartly sunny.1 mph94%29.77 "Hg4 mi
11:00 AM50 °FFog.No wind94%29.77 "Hg3 mi
10:30 AM48 °FFog.1 mph100%29.77 "Hg2 mi
10:00 AM46 °FFog.1 mph100%29.77 "Hg3 mi
9:30 AM46 °FFog.1 mph100%29.77 "Hg3 mi
9:00 AM45 °FFog.1 mph100%29.74 "Hg1 mi
8:00 AM43 °FMostly cloudy.1 mph100%29.74 "Hg1 mi
7:00 AM43 °FPassing clouds.3 mph100%29.71 "Hg0 mi
Weather by CustomWeather, © 2014

See weather overviewHow to use our weather pages